2017-008BH

Last updated on Wed Mar 01 2017 00:15:03 GMT+0000 (Coordinated Universal Time)

1 42003U 17008BH 17059.81481575 .00001735 00000-0 79296-4 0 9999 2 42003 97.5097 121.4274 0007454 222.7100 137.3518 15.21914788 1693
UTC large
Height (km)
Speed (km/s)
/
Latitude / Longitude
Inclination (degrees)
Orbital Period (minutes)
Azimuth
Elevation
Range (km)
Doppler Factor

Next 0 passes for location: London (51.5072 / 0.1276)

Sorry there are no passes over London.
2017-008BH